When you browse on this site, cookies collect data to enhance your experience and personalize the content and advertising you see.
Visit our Privacy Policy to learn more. By continuing to use the site, you agree to this use of cookies and data.
  • In Latvia
  • List of Countries
  • For 7 days
  • Water Temperature
  • Satellite Maps
  • Weather Map
  • Weather Widgets
  • user-avatar
    Login

    Hourly Weather Kuldiga

    Today, 19 November, Monday

    Time Temperature Precipitation Wind Pressure Humidity
    00:00 +1°C° 0 mm 5 mps 771 mmHg 79%
    01:00 0°C° 0 mm 5 mps 771 mmHg 80%
    02:00 +1°C° 0 mm 4 mps 772 mmHg 80%
    03:00 +1°C° 0 mm 4 mps 772 mmHg 80%
    04:00 +1°C° 0 mm 4 mps 772 mmHg 80%
    05:00 +1°C° 0 mm 4 mps 772 mmHg 81%
    06:00 +1°C° 0 mm 4 mps 772 mmHg 81%
    07:00 0°C° 0 mm 5 mps 772 mmHg 81%
    08:00 +1°C° 0 mm 5 mps 772 mmHg 80%
    09:00 +1°C° 0 mm 5 mps 773 mmHg 79%
    10:00 +1°C° 0 mm 5 mps 773 mmHg 78%
    11:00 +1°C° 0 mm 5 mps 773 mmHg 77%
    12:00 +1°C° 0 mm 5 mps 773 mmHg 77%
    13:00 +1°C° 0 mm 5 mps 773 mmHg 77%
    14:00 +1°C° 0 mm 4 mps 773 mmHg 78%
    15:00 +1°C° 0 mm 4 mps 773 mmHg 79%
    16:00 0°C° 0 mm 4 mps 773 mmHg 80%
    17:00 +1°C° 0 mm 3 mps 773 mmHg 80%
    18:00 +1°C° 0 mm 3 mps 773 mmHg 80%
    19:00 +1°C° 0 mm 3 mps 773 mmHg 80%
    20:00 +1°C° 0 mm 3 mps 773 mmHg 80%
    21:00 +1°C° 0 mm 3 mps 773 mmHg 81%
    22:00 +1°C° 0 mm 3 mps 773 mmHg 82%
    23:00 0°C° 0 mm 3 mps 773 mmHg 83%

    Tomorrow, 20 November, Tuesday

    Time Temperature Precipitation Wind Pressure Humidity
    00:00 +1°C° 0 mm 2 mps 773 mmHg 84%
    01:00 +1°C° 0 mm 2 mps 773 mmHg 85%
    02:00 +1°C° 0 mm 2 mps 773 mmHg 86%
    03:00 -1°C° 0 mm 2 mps 772 mmHg 88%
    04:00 -1°C° 0 mm 2 mps 772 mmHg 89%
    05:00 -1°C° 0 mm 2 mps 772 mmHg 90%
    06:00 -1°C° 0 mm 2 mps 772 mmHg 91%
    07:00 -2°C° 0 mm 2 mps 771 mmHg 91%
    08:00 -1°C° 0 mm 2 mps 771 mmHg 88%
    09:00 +1°C° 0 mm 2 mps 771 mmHg 84%
    10:00 +2°C° 0 mm 1 mps 771 mmHg 81%
    11:00 +2°C° 0 mm 1 mps 771 mmHg 79%
    12:00 +3°C° 0 mm 1 mps 771 mmHg 77%
    13:00 +3°C° 0 mm 1 mps 771 mmHg 75%
    14:00 +2°C° 0 mm 1 mps 771 mmHg 79%
    15:00 +2°C° 0 mm 1 mps 770 mmHg 83%
    16:00 -1°C° 0 mm 2 mps 770 mmHg 87%
    17:00 -1°C° 0 mm 2 mps 770 mmHg 88%
    18:00 -1°C° 0 mm 2 mps 770 mmHg 88%
    19:00 -2°C° 0 mm 2 mps 770 mmHg 89%
    20:00 -2°C° 0 mm 2 mps 770 mmHg 89%
    21:00 -2°C° 0 mm 2 mps 770 mmHg 89%
    22:00 0°C° 0 mm 1 mps 770 mmHg 89%
    23:00 0°C° 0 mm 1 mps 770 mmHg 88%

    Day after tomorrow, 21 November, Wednesday

    Time Temperature Precipitation Wind Pressure Humidity
    00:00 0°C° 0 mm 1 mps 770 mmHg 88%
    01:00 0°C° 0 mm 1 mps 770 mmHg 87%
    02:00 0°C° 0 mm 1 mps 770 mmHg 87%
    03:00 0°C° 0 mm 1 mps 770 mmHg 87%
    04:00 +1°C° 0 mm 1 mps 770 mmHg 87%
    05:00 -1°C° 0 mm 2 mps 770 mmHg 87%
    06:00 -1°C° 0 mm 2 mps 770 mmHg 87%
    07:00 -1°C° 0 mm 2 mps 770 mmHg 87%
    08:00 +1°C° 0 mm 2 mps 770 mmHg 85%
    09:00 +2°C° 0 mm 2 mps 771 mmHg 83%
    10:00 +1°C° 0 mm 3 mps 771 mmHg 81%
    11:00 +1°C° 0 mm 3 mps 771 mmHg 80%
    12:00 +3°C° 0 mm 2 mps 771 mmHg 79%
    13:00 +3°C° 0 mm 2 mps 771 mmHg 78%
    14:00 +2°C° 0 mm 2 mps 771 mmHg 80%
    15:00 +2°C° 0 mm 2 mps 771 mmHg 83%
    16:00 +1°C° 0 mm 2 mps 771 mmHg 85%
    17:00 +1°C° 0 mm 2 mps 771 mmHg 85%
    18:00 +1°C° 0 mm 2 mps 771 mmHg 85%
    19:00 -1°C° 0 mm 2 mps 771 mmHg 85%
    20:00 +1°C° 0 mm 1 mps 771 mmHg 86%
    21:00 +1°C° 0 mm 1 mps 771 mmHg 87%
    22:00 0°C° 0 mm 1 mps 771 mmHg 89%
    23:00 0°C° 0 mm 1 mps 771 mmHg 89%

    22 November, Thursday

    Time Temperature Precipitation Wind Pressure Humidity
    00:00 0°C° 0 mm 1 mps 771 mmHg 90%
    01:00 -1°C° 0 mm 0 mps 771 mmHg 90%
    02:00 0°C° 0 mm 1 mps 771 mmHg 90%
    03:00 0°C° 0 mm 1 mps 770 mmHg 90%
    04:00 -1°C° 0 mm 1 mps 770 mmHg 90%
    05:00 -1°C° 0 mm 1 mps 770 mmHg 90%
    06:00 -1°C° 0 mm 1 mps 770 mmHg 90%
    07:00 -1°C° 0 mm 1 mps 770 mmHg 91%
    08:00 0°C° 0 mm 1 mps 770 mmHg 87%
    09:00 +1°C° 0 mm 1 mps 770 mmHg 83%
    10:00 +1°C° 0 mm 1 mps 770 mmHg 80%
    11:00 +1°C° 0 mm 2 mps 769 mmHg 78%
    12:00 +1°C° 0 mm 2 mps 769 mmHg 77%
    13:00 +2°C° 0 mm 2 mps 769 mmHg 76%
    14:00 +1°C° 0 mm 2 mps 769 mmHg 80%
    15:00 -1°C° 0 mm 2 mps 769 mmHg 85%
    16:00 -1°C° 0 mm 2 mps 769 mmHg 90%
    17:00 -1°C° 0 mm 2 mps 769 mmHg 90%
    18:00 -1°C° 0 mm 2 mps 769 mmHg 91%
    19:00 -1°C° 0 mm 2 mps 768 mmHg 92%
    20:00 -1°C° 0 mm 2 mps 769 mmHg 92%
    21:00 -1°C° 0 mm 2 mps 769 mmHg 92%
    22:00 -1°C° 0 mm 2 mps 769 mmHg 92%
    23:00 -1°C° 0 mm 2 mps 769 mmHg 92%

    23 November, Friday

    Time Temperature Precipitation Wind Pressure Humidity
    00:00 -1°C° 0 mm 2 mps 769 mmHg 92%
    01:00 -1°C° 0 mm 2 mps 769 mmHg 93%
    02:00 -1°C° 0 mm 2 mps 769 mmHg 93%
    03:00 -1°C° 0 mm 2 mps 769 mmHg 93%
    04:00 -1°C° 0 mm 2 mps 769 mmHg 93%
    05:00 -1°C° 0 mm 2 mps 769 mmHg 93%
    06:00 -1°C° 0 mm 2 mps 769 mmHg 93%
    07:00 -1°C° 0 mm 2 mps 769 mmHg 93%
    08:00 -1°C° 0 mm 3 mps 769 mmHg 90%
    09:00 0°C° 0 mm 3 mps 769 mmHg 88%
    10:00 +1°C° 0 mm 3 mps 769 mmHg 85%
    11:00 +1°C° 0 mm 3 mps 768 mmHg 84%
    12:00 +1°C° 0 mm 3 mps 768 mmHg 83%
    13:00 +2°C° 0 mm 3 mps 768 mmHg 82%
    14:00 +1°C° 0 mm 3 mps 768 mmHg 84%
    15:00 0°C° 0 mm 3 mps 767 mmHg 87%
    16:00 -1°C° 0 mm 3 mps 767 mmHg 89%
    17:00 -1°C° 0 mm 3 mps 767 mmHg 89%
    18:00 -1°C° 0 mm 3 mps 767 mmHg 89%
    19:00 -1°C° 0 mm 3 mps 766 mmHg 88%
    20:00 -1°C° 0 mm 3 mps 766 mmHg 88%
    21:00 -1°C° 0 mm 3 mps 765 mmHg 88%
    22:00 -1°C° 0 mm 3 mps 765 mmHg 89%
    23:00 -1°C° 0 mm 3 mps 765 mmHg 89%

    24 November, Saturday

    Time Temperature Precipitation Wind Pressure Humidity
    00:00 -1°C° 0 mm 3 mps 764 mmHg 89%
    01:00 -1°C° 0 mm 3 mps 764 mmHg 89%
    02:00 -1°C° 0 mm 3 mps 764 mmHg 89%
    03:00 -1°C° 0 mm 3 mps 763 mmHg 90%
    04:00 -1°C° 0 mm 2 mps 763 mmHg 90%
    05:00 -1°C° 0 mm 2 mps 762 mmHg 90%
    06:00 -1°C° 0 mm 2 mps 762 mmHg 91%
    07:00 -1°C° 0 mm 2 mps 762 mmHg 91%
    08:00 +1°C° 0 mm 2 mps 762 mmHg 89%
    09:00 +1°C° 0 mm 2 mps 761 mmHg 87%
    10:00 +2°C° 0 mm 2 mps 761 mmHg 86%
    11:00 +2°C° 0 mm 2 mps 761 mmHg 85%
    12:00 +3°C° 0 mm 1 mps 761 mmHg 84%
    13:00 +3°C° 0 mm 1 mps 761 mmHg 83%
    14:00 +3°C° 0 mm 1 mps 761 mmHg 85%
    15:00 +3°C° 0 mm 1 mps 761 mmHg 86%
    16:00 +3°C° 0 mm 1 mps 761 mmHg 88%
    17:00 +2°C° 0 mm 1 mps 761 mmHg 88%
    18:00 +2°C° 0 mm 1 mps 761 mmHg 88%
    19:00 +2°C° 0 mm 1 mps 761 mmHg 88%
    20:00 +2°C° 0 mm 1 mps 761 mmHg 88%
    21:00 +2°C° 0 mm 1 mps 761 mmHg 88%
    22:00 +2°C° 0 mm 1 mps 762 mmHg 88%
    23:00 +2°C° 0 mm 1 mps 761 mmHg 88%
    Show more